Location: Azul
(36.7830°S, 59.8500°W)
Time: 09:12:43
(UTC-03:00)

ISS - Pass Details

Date: 12 December 2019
Orbit: 411 x 421 km, 51.6° (Epoch: 11 December)

Event Time Altitude Azimuth Distance (km) Brightness Sun altitude
Exits shadow 01:03:32 14° 202° (SSW) 1,322 -0.6 -30.1°
Drops below altitude 10° 01:05:21 10° 170° (S) 1,531 0.0 -30.1°
Sets 01:08:19 0° 142° (SE) 2,399 0.9 -30.1°
